GW4504 Weather Reports


time (UTC)temp
F
wind
direction
speed
knots
gust
knots
rain 1hr
in
rain 24hr
in
rain mn
in
humidity
%
barometer
mb
20260510143052 62 333 6.1 13.9 0.00 0.00 0.00 81 1014.5
20260510141537 61 355 6.1 12.2 0.00 0.00 0.00 82 1014.5
20260510140036 61 355 6.1 13.0 0.00 0.00 0.00 83 1014.9
20260510134537 61 349 4.3 7.8 0.00 0.00 0.00 84 1015.1
20260510133034 60 350 5.2 7.8 0.00 0.00 0.00 84 1015.2
20260510131544 60 311 0.9 3.5 0.00 0.00 0.00 84 1015.0
20260510130029 60 333 1.7 4.3 0.00 0.00 0.00 84 1014.4
20260510124525 60 28 1.7 5.2 0.00 0.00 0.00 85 1013.5
20260510123023 59 17 0.9 4.3 0.00 0.00 0.00 86 1013.1
20260510121521 59 336 3.5 7.0 0.00 0.00 0.00 88 1013.1
20260510120018 58 355 1.7 11.3 0.00 0.00 0.00 88 1012.2
20260510114515 58 150 0.0 0.0 0.00 0.00 0.00 88 1011.7
20260510113018 58 150 0.0 0.0 0.00 0.00 0.00 87 1011.5
20260510111512 58 150 0.0 4.3 0.00 0.00 0.00 86 1011.6
20260510110007 59 335 0.0 0.0 0.00 0.00 0.00 86 1010.8
20260510104505 59 335 0.0 0.0 0.00 0.00 0.00 85 1010.5
20260510103004 60 335 0.0 0.0 0.00 0.00 0.00 84 1010.7
20260510101502 60 335 0.0 0.0 0.00 0.00 0.00 84 1010.7
20260510100107 61 335 0.0 0.0 0.00 0.00 0.00 84 1010.5
20260510094557 61 335 0.0 0.0 0.00 0.01 0.00 82 1010.7
20260510093055 62 16 0.0 2.6 0.00 0.01 0.00 82 1010.7
20260510091556 62 16 0.0 0.0 0.00 0.01 0.00 82 1010.4
20260510090052 62 16 0.0 0.0 0.00 0.01 0.00 81 1010.0
20260510084549 63 17 0.0 0.0 0.00 0.01 0.00 80 1009.6
20260510083047 63 355 0.0 0.0 0.00 0.01 0.00 79 1009.1
20260510081544 64 355 0.0 0.0 0.00 0.01 0.00 78 1008.9
20260510080054 65 249 0.0 0.0 0.00 0.01 0.00 77 1008.9
20260510074547 65 249 0.0 0.0 0.00 0.01 0.00 77 1009.0
20260510073047 65 275 0.0 0.0 0.00 0.01 0.00 76 1009.2
20260510071537 66 162 0.0 0.0 0.00 0.01 0.00 75 1008.4
20260510070034 67 162 0.0 2.6 0.00 0.01 0.00 73 1008.1
20260510064545 69 162 0.0 0.0 0.00 0.01 0.00 68 1008.7
20260510063032 69 162 0.0 2.6 0.00 0.01 0.00 66 1008.7
20260510061532 70 162 0.0 7.8 0.00 0.01 0.00 66 1008.6
20260510060028 70 175 7.8 13.0 0.00 0.01 0.00 66 1007.7
20260510054526 68 192 5.2 7.0 0.00 0.01 0.00 71 1009.0
20260510053036 67 286 0.9 3.5 0.00 0.01 0.00 73 1010.8
20260510051517 67 304 0.0 0.0 0.00 0.01 0.00 74 1010.8
20260510050018 66 304 0.0 0.0 0.00 0.01 0.01 74 1010.7
20260510044510 65 317 0.0 0.0 0.00 0.01 0.01 75 1010.8
20260510043005 65 317 0.0 3.5 0.00 0.01 0.01 77 1010.7
20260510041600 65 322 0.0 4.3 0.00 0.01 0.01 77 1010.5
20260510040056 64 350 2.6 4.3 0.00 0.01 0.01 80 1009.9
20260510034613 65 338 0.0 0.0 0.00 0.01 0.01 78 1009.4
20260510033051 65 276 0.0 0.0 0.00 0.01 0.01 73 1009.0
20260510031543 65 276 0.0 0.0 0.00 0.01 0.01 71 1008.9
20260510030039 66 276 0.0 0.0 0.00 0.01 0.01 72 1009.2
20260510024534 67 276 0.0 0.0 0.00 0.01 0.01 72 1008.9
20260510023029 69 174 0.0 0.0 0.00 0.01 0.01 70 1008.3
20260510021530 70 174 0.0 0.0 0.00 0.01 0.01 62 1007.8
20260510020028 72 174 0.0 0.0 0.00 0.01 0.01 56 1007.6
20260510014516 73 174 0.0 0.0 0.00 0.01 0.01 55 1007.1
20260510013012 74 174 0.0 0.0 0.00 0.01 0.01 53 1007.0
20260510011508 75 174 0.0 0.0 0.00 0.01 0.01 53 1006.7
20260510010003 77 174 0.0 0.0 0.00 0.02 0.01 52 1006.5
20260510004558 77 174 0.0 0.0 0.00 0.02 0.01 52 1006.1
20260510003105 78 174 0.0 0.9 0.00 0.02 0.01 51 1005.9
20260510001551 79 178 0.9 4.3 0.00 0.02 0.01 47 1006.0
20260510000053 80 127 1.7 6.1 0.00 0.02 0.01 45 1006.0
20260509234541 80 143 3.5 7.8 0.00 0.03 0.01 44 1006.0
20260509233036 81 145 2.6 7.0 0.00 0.03 0.01 42 1006.1
20260509231534 81 172 5.2 8.7 0.00 0.03 0.01 42 1006.2
20260509230028 81 150 3.5 10.4 0.00 0.03 0.01 41 1006.1
20260509224523 81 147 3.5 7.8 0.00 0.26 0.01 40 1006.2
20260509223019 82 150 5.2 8.7 0.00 0.26 0.01 40 1006.2
20260509221516 82 164 3.5 8.7 0.00 0.26 0.01 43 1006.4
20260509220010 83 100 3.5 7.0 0.00 0.27 0.01 41 1006.5
20260509214505 82 184 0.9 7.0 0.00 0.27 0.01 38 1006.6
20260509213002 82 159 2.6 7.8 0.00 0.27 0.01 40 1006.7
20260509211605 82 156 2.6 7.0 0.00 0.27 0.01 43 1006.9
20260509210056 83 129 3.5 7.8 0.00 0.27 0.01 43 1007.1
20260509204548 82 200 3.5 6.1 0.00 0.27 0.01 39 1007.2
20260509203044 82 154 0.9 6.1 0.00 0.27 0.01 43 1007.4
20260509201539 82 136 1.7 8.7 0.00 0.27 0.01 45 1007.5
20260509200038 81 162 3.5 7.0 0.00 0.27 0.01 44 1007.7
20260509194544 81 162 3.5 7.8 0.00 0.27 0.01 44 1007.9
20260509193028 81 209 4.3 6.1 0.00 0.27 0.01 44 1007.9
20260509191521 81 200 5.2 7.8 0.00 0.27 0.01 50 1007.9
20260509190019 80 173 2.6 8.7 0.00 0.27 0.01 48 1007.9
20260509184512 80 154 4.3 7.8 0.00 0.27 0.01 48 1008.1
20260509183008 79 198 2.6 8.7 0.00 0.27 0.01 59 1008.2
20260509181504 79 170 4.3 8.7 0.00 0.27 0.01 55 1008.5
20260509180101 78 250 3.5 7.8 0.00 0.27 0.01 61 1008.7
20260509174556 78 202 0.9 7.8 0.00 0.27 0.01 64 1008.9
20260509173057 77 191 4.3 8.7 0.00 0.27 0.01 67 1009.0
20260509171547 76 178 4.3 7.8 0.00 0.27 0.01 71 1009.0
20260509170042 75 150 2.6 7.8 0.00 0.27 0.01 76 1009.0
20260509164537 74 212 3.5 6.1 0.00 0.27 0.01 79 1009.2
20260509163044 73 210 4.3 7.0 0.00 0.27 0.01 76 1009.0
20260509161540 72 173 4.3 7.0 0.00 0.27 0.01 83 1009.1
20260509160026 71 186 3.5 7.0 0.00 0.27 0.01 86 1009.0
20260509154521 70 154 4.3 7.0 0.00 0.27 0.01 88 1008.7
20260509153032 68 164 2.6 7.0 0.00 0.27 0.01 91 1008.7
20260509151513 67 139 2.6 6.1 0.00 0.27 0.01 94 1008.9
20260509150020 65 146 1.7 4.3 0.00 0.27 0.01 96 1009.1
20260509144503 63 149 1.7 5.2 0.00 0.27 0.01 96 1009.0